Location: Monrovia
(34.7865°N, 86.7139°W)
Time: 00:43:48
(UTC+00:00)

COSMOS 2441 - Pass Details

Date: 14 July 2020
Orbit: 707 x 732 km, 98.0° (Epoch: 12 August)

Event Time Altitude Azimuth Distance (km) Brightness Sun altitude
Rises 09:29:21 0° 10° (N) 3,115 8.5 -13.7°
Reaches altitude 10° 09:31:38 10° 8° (N) 2,190 7.6 -13.4°
Maximum altitude 09:36:25 74° 284° (WNW) 738 4.3 -12.6°
Enters shadow 09:40:56 11° 200° (SSW) 2,082 6.3 -11.9°
